This is the latest recevied weather packets stored in our database for station/object SP7QPD-1. If no packets are shown the sender has not sent any weather packets the latest 10 day(s).
| Time | Temp. | Humidity | Pressure | Rain* | Wind** | Luminosity | Snow |
|---|---|---|---|---|---|---|---|
| 1777495222 | 1.11° C | 62% | 1029 hPa | 0 mm | - | - | - |
| 1777494622 | 1.11° C | 62% | 1028.8 hPa | 0 mm | - | - | - |
| 1777494061 | 1.67° C | 61% | 1028.8 hPa | 0 mm | - | - | - |
| 1777493421 | 1.67° C | 60% | 1028.7 hPa | 0 mm | - | - | - |
| 1777492821 | 2.22° C | 59% | 1028.7 hPa | 0 mm | - | - | - |
| 1777492260 | 2.22° C | 60% | 1028.7 hPa | 0 mm | - | - | - |
| 1777491621 | 2.78° C | 58% | 1028.7 hPa | 0 mm | - | - | - |
| 1777491021 | 2.78° C | 58% | 1028.6 hPa | 0 mm | - | - | - |
| 1777490460 | 3.33° C | 57% | 1028.6 hPa | 0 mm | - | - | - |
| 1777489821 | 3.89° C | 56% | 1028.5 hPa | 0 mm | - | - | - |
| 1777489221 | 3.89° C | 55% | 1028.6 hPa | 0 mm | - | - | - |
| 1777488659 | 4.44° C | 54% | 1028.3 hPa | 0 mm | - | - | - |
| 1777488020 | 4.44° C | 53% | 1028.2 hPa | 0 mm | - | - | - |
| 1777487421 | 5° C | 51% | 1028.2 hPa | 0 mm | - | - | - |
| 1777486859 | 5° C | 51% | 1028 hPa | 0 mm | - | - | - |
| 1777486220 | 5.56° C | 50% | 1027.8 hPa | 0 mm | - | - | - |
| 1777485620 | 6.11° C | 50% | 1027.7 hPa | 0 mm | - | - | - |
| 1777485059 | 6.11° C | 50% | 1027.7 hPa | 0 mm | - | - | - |
| 1777484420 | 6.67° C | 48% | 1027.7 hPa | 0 mm | - | - | - |
| 1777483820 | 6.67° C | 47% | 1027.6 hPa | 0 mm | - | - | - |
| 1777483258 | 7.22° C | 47% | 1027.6 hPa | 0 mm | - | - | - |
| 1777482620 | 7.22° C | 46% | 1027.5 hPa | 0 mm | - | - | - |
| 1777482020 | 7.22° C | 45% | 1027.3 hPa | 0 mm | - | - | - |
| 1777481458 | 7.78° C | 45% | 1027.3 hPa | 0 mm | - | - | - |
| 1777480820 | 7.78° C | 44% | 1027.3 hPa | 0 mm | - | - | - |
* Rain latest hour (hover to see other rain measurements)
** Current wind speed in m/s (hover to see current wind gust speed)